Location: Crescent
(42.8242°N, 73.7329°W)
Time: 07:37:02
(UTC+00:00)

Vanguard 1 - Pass Details

Date: 20 February 2026
Orbit: 653 x 3818 km, 34.2° (Epoch: 12 March)

Event Time Altitude Azimuth Distance (km) Brightness Sun altitude
Rises 03:02:13 0° 280° (W) 7,038 15.0 -47.9°
Reaches altitude 10° 03:07:52 10° 269° (W) 6,388 14.5 -48.7°
Maximum altitude 03:23:18 26° 224° (SW) 5,654 13.7 -50.7°
Enters shadow 03:28:02 24° 208° (SSW) 5,772 13.7 -51.3°
Drops below altitude 10° 03:39:33 10° 178° (S) 6,621 - -52.7°
Sets 03:45:46 0° 166° (SSE) 7,319 - -53.4°
